Regional Weather Roundup
Issued by NWS

Home | Current Version | Previous Version | Graphics & Text | Print | Product List | Glossary On
Versions: 1 2 3 4 5 6 7 8 9 10 11 12 13 14 15 16 17 18 19 20 21 22 23 24 25 26 27
000
ASUS45 KSLC 020010
RWRUT

UTAH REGIONAL WEATHER ROUNDUP
NATIONAL WEATHER SERVICE SALT LAKE CITY UT
500 PM MST THU DEC 01 2016

UTZ001>011-023>025-020100-

NORTHERN UTAH

CITY           SKY/WX    TMP DP  RH WIND       PRES   REMARKS
BRIGHAM CITY     N/A     35  26  70 SW5       30.08S WCI  31
DUGWAY         PTCLDY    35  17  48 N8        30.08R WCI  28
HILL AFB       LGT SNOW  30  27  86 N8        30.07R VSB 1   WCI  23
LOGAN          CLOUDY    33  24  69 SW5       30.07R WCI  29
OGDEN          LGT SNOW  30  27  88 SE6       30.07R VSB 3/4 WCI  24
SALT LAKE CITY CLOUDY    34  28  79 N5        30.07R WCI  30
TOOELE VALLEY  CLOUDY    32  30  93 N15       30.08R WCI  22
WENDOVER       CLOUDY    36  12  38 NW10      30.08R WCI  28
HEBER CITY     LGT SNOW  28  25  86 CALM      30.01R
WEST JORDAN    PTCLDY    31  30  95 W3        30.08R

$$

UTZ011>015-024>027-020100-

CENTRAL/NORTHEAST UTAH

CITY           SKY/WX    TMP DP  RH WIND       PRES   REMARKS
PROVO AIRPORT  CLOUDY    32  26  78 CALM      30.08R
MOAB/CANYONLAN CLOUDY    40  15  36 CALM      29.97R
DELTA          PTCLDY    34  21  60 N8        30.05R WCI  27
PRICE          CLEAR     32  13  45 CALM      29.96R
ROOSEVELT      CLOUDY    34  19  55 E6        30.02R WCI  29
VERNAL         CLOUDY    31  20  63 E6        30.00R WCI  25

$$

UTZ013>016-019>022-027-020100-

SOUTHERN UTAH

CITY           SKY/WX    TMP DP  RH WIND       PRES   REMARKS
BRYCE CANYON   PTCLDY    26  13  57 N9        29.93R WCI  17
CEDAR CITY     MOCLDY    33  18  53 N13       29.96R WCI  24
MILFORD        CLOUDY    35  23  61 N14       30.01R WCI  26
ST GEORGE      PTCLDY    48  18  29 CALM      29.97S
HANKSVILLE     CLEAR     41  14  33 CALM      29.99S
KANAB          PTCLDY    43  16  33 W5        29.95
BLANDING       CLOUDY    34  15  45 S5        30.02S WCI  30

$$

REGIONAL REPORTS     COLORADO/ARIZONA

CITY           SKY/WX    TMP DP  RH WIND       PRES   REMARKS
CRAIG, CO      LGT SNOW  26  21  81 E3        29.99R
GRAND JUNCTION CLOUDY    35  18  49 CALM      29.99S
RIFLE, CO      CLOUDY    32  20  61 S3        29.99S
MONTROSE, CO   CLOUDY    32  15  49 N7        29.99R WCI  26
CORTEZ, CO     CLEAR     29  19  66 S7        29.95S WCI  22
COLORADO CITY  MOCLDY    43  23  45 CALM      29.96S
PAGE, AZ       CLEAR     43  13  29 N3        29.93S
GRAND CANYON   PTCLDY    37  19  48 CALM      29.93F
KINGMAN, AZ    PTCLDY    47  14  26 NE7       29.91F
FLAGSTAFF, AZ  PTCLDY    34  15  46 NE7       29.91F WCI  28

$$

REGIONAL REPORTS    NEVADA/IDAHO/WYOMING

CITY           SKY/WX    TMP DP  RH WIND       PRES   REMARKS
LAS VEGAS, NV  MOCLDY    56  18  22 E3        29.93F
ELY, NY        CLOUDY    28  20  71 N9        30.01F WCI  19
ELKO, NV       CLOUDY    31  17  56 NW10      30.10R WCI  22
POCATELLO, ID  CLOUDY    30  24  78 SW10      30.08S WCI  21
BURLEY, ID     CLOUDY    32  23  69 W12       30.08R WCI  23
FORT BRIDGER,  MOCLDY    21  14  73 W7        30.00R WCI  13
EVANSTON, WY   FLURRIES  21  13  71 W10       29.98R WCI  10
ROCK SPRINGS,  PTCLDY    22  12  65 W10       29.95R WCI  11

$$




USA.gov is the U.S. government's official web portal to all federal, state and local government web resources and services.